Time,TemperatureF,DewpointF,PressureIn,WindDirection,WindDirectionDegrees,WindSpeedMPH,WindSpeedGustMPH,Humidity,HourlyPrecipIn,Conditions,Clouds,dailyrainin,SolarRadiationWatts/m^2,SoftwareType,DateUTC
2013-08-29 00:00:00,83.2,77.1,29.95,ESE,105,5.0,8.2,82,0.00,,---,0.00,0.00,VWS V14.01,2013-08-29 05:00:00,
2013-08-29 00:01:00,83.2,77.1,29.95,ESE,105,6.0,8.2,82,0.00,,---,0.00,0.00,VWS V14.01,2013-08-29 05:01:00,
2013-08-29 00:05:00,83.8,77.3,29.95,ESE,111,4.0,11.2,81,0.00,,---,0.00,0.00,VWS V14.01,2013-08-29 05:05:00,
2013-08-29 00:06:00,83.8,77.3,29.95,ESE,111,4.0,11.2,81,0.00,,---,0.00,0.00,VWS V14.01,2013-08-29 05:06:00,
2013-08-29 00:10:00,83.6,76.8,29.95,ESE,109,5.0,10.2,80,0.00,,---,0.00,0.00,VWS V14.01,2013-08-29 05:10:00,
2013-08-29 00:11:00,83.6,76.8,29.95,ESE,109,4.0,10.2,80,0.00,,---,0.00,0.00,VWS V14.01,2013-08-29 05:11:00,
2013-08-29 00:15:00,83.2,76.8,29.95,ESE,122,2.0,10.2,81,0.00,,---,0.00,0.00,VWS V14.01,2013-08-29 05:15:00,
2013-08-29 00:16:00,83.2,76.8,29.95,ESE,122,2.0,10.2,81,0.00,,---,0.00,0.00,VWS V14.01,2013-08-29 05:16:00,
2013-08-29 00:20:00,82.8,76.8,29.95,SE,137,6.0,10.2,82,0.00,,---,0.00,0.00,VWS V14.01,2013-08-29 05:20:00,
2013-08-29 00:21:00,82.8,76.8,29.95,SE,137,6.0,10.2,82,0.00,,---,0.00,0.00,VWS V14.01,2013-08-29 05:21:00,
2013-08-29 00:25:00,82.8,76.8,29.95,ESE,111,5.0,10.2,82,0.00,,---,0.00,0.00,VWS V14.01,2013-08-29 05:25:00,
2013-08-29 00:26:00,82.8,76.8,29.95,ESE,111,5.0,10.2,82,0.00,,---,0.00,0.00,VWS V14.01,2013-08-29 05:26:00,
2013-08-29 00:30:00,82.6,76.9,29.95,ESE,108,5.0,12.2,83,0.00,,---,0.00,0.00,VWS V14.01,2013-08-29 05:30:00,
2013-08-29 00:31:00,82.6,76.9,29.95,ESE,108,5.0,12.2,83,0.00,,---,0.00,0.00,VWS V14.01,2013-08-29 05:31:00,
2013-08-29 00:35:00,82.6,77.3,29.95,SE,132,9.0,10.2,84,0.00,,---,0.00,0.00,VWS V14.01,2013-08-29 05:35:00,
2013-08-29 00:36:00,82.6,77.3,29.95,SE,132,9.0,10.2,84,0.00,,---,0.00,0.00,VWS V14.01,2013-08-29 05:36:00,
2013-08-29 00:40:00,82.6,77.3,29.95,ESE,102,5.0,10.2,84,0.00,,---,0.00,0.00,VWS V14.01,2013-08-29 05:40:00,
2013-08-29 00:41:00,82.6,77.3,29.95,ESE,102,5.0,10.2,84,0.00,,---,0.00,0.00,VWS V14.01,2013-08-29 05:41:00,
2013-08-29 00:45:00,83.2,77.5,29.95,SE,135,3.0,11.2,83,0.00,,---,0.00,0.00,VWS V14.01,2013-08-29 05:45:00,
2013-08-29 00:46:00,83.2,77.5,29.95,SE,135,3.0,11.2,83,0.00,,---,0.00,0.00,VWS V14.01,2013-08-29 05:46:00,
2013-08-29 00:50:00,83.0,77.3,29.95,SE,125,3.0,10.2,83,0.00,,---,0.00,0.00,VWS V14.01,2013-08-29 05:50:00,
2013-08-29 00:51:00,83.0,77.3,29.95,SE,125,3.0,10.2,83,0.00,,---,0.00,0.00,VWS V14.01,2013-08-29 05:51:00,
2013-08-29 00:55:00,82.8,77.5,29.95,SE,129,3.0,12.2,84,0.00,,---,0.00,0.00,VWS V14.01,2013-08-29 05:55:00,
2013-08-29 00:56:00,82.8,77.5,29.95,SE,129,2.0,12.2,84,0.00,,---,0.00,0.00,VWS V14.01,2013-08-29 05:56:00,
2013-08-29 01:00:00,82.6,77.3,29.95,SE,128,3.0,7.2,84,0.00,,---,0.00,0.00,VWS V14.01,2013-08-29 06:00:00,
2013-08-29 01:01:00,82.6,77.3,29.95,SE,128,2.0,7.2,84,0.00,,---,0.00,0.00,VWS V14.01,2013-08-29 06:01:00,
2013-08-29 01:05:00,82.6,77.3,29.95,ESE,122,4.0,8.2,84,0.00,,---,0.00,0.00,VWS V14.01,2013-08-29 06:05:00,
2013-08-29 01:06:00,82.6,77.3,29.95,ESE,122,4.0,8.2,84,0.00,,---,0.00,0.00,VWS V14.01,2013-08-29 06:06:00,
2013-08-29 01:10:00,82.8,77.5,29.95,SE,134,3.0,10.2,84,0.00,,---,0.00,0.00,VWS V14.01,2013-08-29 06:10:00,
2013-08-29 01:11:00,82.8,77.5,29.95,SE,134,3.0,10.2,84,0.00,,---,0.00,0.00,VWS V14.01,2013-08-29 06:11:00,
2013-08-29 01:15:00,83.0,77.3,29.95,SE,143,3.0,11.2,83,0.00,,---,0.00,0.00,VWS V14.01,2013-08-29 06:15:00,
2013-08-29 01:16:00,83.0,77.3,29.95,SE,143,4.0,11.2,83,0.00,,---,0.00,0.00,VWS V14.01,2013-08-29 06:16:00,
2013-08-29 01:20:00,83.2,77.1,29.95,SE,134,1.0,12.2,82,0.00,,---,0.00,0.00,VWS V14.01,2013-08-29 06:20:00,
2013-08-29 01:21:00,83.2,77.1,29.95,SE,134,3.0,12.2,82,0.00,,---,0.00,0.00,VWS V14.01,2013-08-29 06:21:00,
2013-08-29 01:25:00,83.6,77.2,29.95,ESE,117,8.0,12.2,81,0.00,,---,0.00,0.00,VWS V14.01,2013-08-29 06:25:00,
2013-08-29 01:26:00,83.6,77.2,29.95,ESE,119,6.0,12.2,81,0.00,,---,0.00,0.00,VWS V14.01,2013-08-29 06:26:00,
2013-08-29 01:30:00,83.2,76.8,29.95,SE,142,4.0,11.2,81,0.00,,---,0.00,0.00,VWS V14.01,2013-08-29 06:30:00,
2013-08-29 01:31:00,83.2,76.8,29.95,SE,142,3.0,11.2,81,0.00,,---,0.00,0.00,VWS V14.01,2013-08-29 06:31:00,
2013-08-29 01:35:00,82.8,76.8,29.95,SE,138,6.0,8.2,82,0.00,,---,0.00,0.00,VWS V14.01,2013-08-29 06:35:00,
2013-08-29 01:36:00,82.8,76.8,29.95,SE,139,4.0,8.2,82,0.00,,---,0.00,0.00,VWS V14.01,2013-08-29 06:36:00,
2013-08-29 01:40:00,82.6,76.9,29.95,SE,137,4.0,8.2,83,0.00,,---,0.00,0.00,VWS V14.01,2013-08-29 06:40:00,
2013-08-29 01:41:00,82.6,76.9,29.95,SE,137,6.0,8.2,83,0.00,,---,0.00,0.00,VWS V14.01,2013-08-29 06:41:00,
2013-08-29 01:45:00,82.4,76.7,29.95,SE,137,3.0,8.2,83,0.00,,---,0.00,0.00,VWS V14.01,2013-08-29 06:45:00,
2013-08-29 01:46:00,82.4,76.7,29.95,SE,137,1.0,8.2,83,0.00,,---,0.00,0.00,VWS V14.01,2013-08-29 06:46:00,
2013-08-29 01:50:00,82.4,77.1,29.95,SE,137,5.0,7.2,84,0.00,,---,0.00,0.00,VWS V14.01,2013-08-29 06:50:00,
2013-08-29 01:51:00,82.4,77.1,29.95,SE,137,4.0,7.2,84,0.00,,---,0.00,0.00,VWS V14.01,2013-08-29 06:51:00,
2013-08-29 01:55:00,82.4,77.1,29.95,SE,135,4.0,7.2,84,0.00,,---,0.00,0.00,VWS V14.01,2013-08-29 06:55:00,
2013-08-29 01:56:00,82.4,77.1,29.95,SE,135,5.0,7.2,84,0.00,,---,0.00,0.00,VWS V14.01,2013-08-29 06:56:00,
2013-08-29 02:00:00,82.4,77.1,29.95,SE,137,5.0,10.2,84,0.00,,---,0.00,0.00,VWS V14.01,2013-08-29 07:00:00,
2013-08-29 02:01:00,82.4,77.1,29.95,SE,137,5.0,10.2,84,0.00,,---,0.00,0.00,VWS V14.01,2013-08-29 07:01:00,
2013-08-29 02:05:00,82.6,77.3,29.95,SE,136,3.0,11.2,84,0.00,,---,0.00,0.00,VWS V14.01,2013-08-29 07:05:00,
2013-08-29 02:06:00,82.6,77.3,29.95,SE,136,5.0,11.2,84,0.00,,---,0.00,0.00,VWS V14.01,2013-08-29 07:06:00,
2013-08-29 02:10:00,82.8,77.5,29.95,SE,136,3.0,8.2,84,0.00,,---,0.00,0.00,VWS V14.01,2013-08-29 07:10:00,
2013-08-29 02:11:00,82.8,77.5,29.95,SE,136,6.0,8.2,84,0.00,,---,0.00,0.00,VWS V14.01,2013-08-29 07:11:00,
2013-08-29 02:15:00,82.6,77.3,29.95,SE,136,6.0,8.2,84,0.00,,---,0.00,0.00,VWS V14.01,2013-08-29 07:15:00,
2013-08-29 02:16:00,82.6,77.3,29.95,SE,136,4.0,8.2,84,0.00,,---,0.00,0.00,VWS V14.01,2013-08-29 07:16:00,
2013-08-29 02:20:00,82.4,77.4,29.95,SE,136,1.0,7.2,85,0.00,,---,0.00,0.00,VWS V14.01,2013-08-29 07:20:00,
2013-08-29 02:21:00,82.4,77.4,29.95,SE,136,2.0,7.2,85,0.00,,---,0.00,0.00,VWS V14.01,2013-08-29 07:21:00,
2013-08-29 02:25:00,82.2,77.2,29.95,SE,136,0.0,6.2,85,0.00,,---,0.00,0.00,VWS V14.01,2013-08-29 07:25:00,
2013-08-29 02:26:00,82.2,77.2,29.95,SE,136,1.0,6.2,85,0.00,,---,0.00,0.00,VWS V14.01,2013-08-29 07:26:00,
2013-08-29 02:30:00,82.4,77.4,29.95,SE,140,5.0,10.2,85,0.00,,---,0.00,0.00,VWS V14.01,2013-08-29 07:30:00,
2013-08-29 02:31:00,82.4,77.4,29.95,SE,140,4.0,10.2,85,0.00,,---,0.00,0.00,VWS V14.01,2013-08-29 07:31:00,
2013-08-29 02:35:00,82.6,77.6,29.95,SE,140,4.0,6.2,85,0.00,,---,0.00,0.00,VWS V14.01,2013-08-29 07:35:00,
2013-08-29 02:36:00,82.6,77.6,29.95,SE,140,3.0,6.2,85,0.00,,---,0.00,0.00,VWS V14.01,2013-08-29 07:36:00,
2013-08-29 02:40:00,82.6,77.6,29.95,SE,140,1.0,5.2,85,0.00,,---,0.00,0.00,VWS V14.01,2013-08-29 07:40:00,
2013-08-29 02:41:00,82.6,77.6,29.95,SE,140,0.0,5.2,85,0.00,,---,0.00,0.00,VWS V14.01,2013-08-29 07:41:00,
2013-08-29 02:45:00,82.6,77.6,29.95,SE,140,1.0,4.2,85,0.00,,---,0.00,0.00,VWS V14.01,2013-08-29 07:45:00,
2013-08-29 02:46:00,82.6,77.6,29.95,SE,140,1.0,4.2,85,0.00,,---,0.00,0.00,VWS V14.01,2013-08-29 07:46:00,
2013-08-29 02:50:00,82.4,77.4,29.95,SE,140,1.0,5.2,85,0.00,,---,0.00,0.00,VWS V14.01,2013-08-29 07:50:00,
2013-08-29 02:51:00,82.4,77.4,29.95,SE,140,1.0,5.2,85,0.00,,---,0.00,0.00,VWS V14.01,2013-08-29 07:51:00,
2013-08-29 02:55:00,82.4,77.8,29.95,SE,140,0.0,4.2,86,0.00,,---,0.00,0.00,VWS V14.01,2013-08-29 07:55:00,
2013-08-29 02:56:00,82.4,77.8,29.95,SE,140,1.0,4.2,86,0.00,,---,0.00,0.00,VWS V14.01,2013-08-29 07:56:00,
2013-08-29 03:00:00,82.2,77.6,29.95,SE,140,0.0,5.2,86,0.00,,---,0.00,0.00,VWS V14.01,2013-08-29 08:00:00,
2013-08-29 03:01:00,82.2,77.6,29.95,SE,140,0.0,5.2,86,0.00,,---,0.00,0.00,VWS V14.01,2013-08-29 08:01:00,
2013-08-29 03:05:00,82.0,77.4,29.95,SE,140,0.0,5.2,86,0.00,,---,0.00,0.00,VWS V14.01,2013-08-29 08:05:00,
2013-08-29 03:06:00,82.0,77.4,29.95,SE,140,0.0,5.2,86,0.00,,---,0.00,0.00,VWS V14.01,2013-08-29 08:06:00,
2013-08-29 03:10:00,82.0,77.4,29.95,SE,140,1.0,5.2,86,0.00,,---,0.00,0.00,VWS V14.01,2013-08-29 08:10:00,
2013-08-29 03:11:00,82.0,77.4,29.95,SE,140,2.0,5.2,86,0.00,,---,0.00,0.00,VWS V14.01,2013-08-29 08:11:00,
2013-08-29 03:15:00,81.8,77.2,29.95,SE,140,1.0,5.2,86,0.00,,---,0.00,0.00,VWS V14.01,2013-08-29 08:15:00,
2013-08-29 03:16:00,81.8,77.2,29.95,SE,140,1.0,5.2,86,0.00,,---,0.00,0.00,VWS V14.01,2013-08-29 08:16:00,
2013-08-29 03:20:00,81.8,77.2,29.95,SE,140,0.0,4.2,86,0.00,,---,0.00,0.00,VWS V14.01,2013-08-29 08:20:00,
2013-08-29 03:21:00,81.8,77.2,29.95,SE,140,2.0,4.2,86,0.00,,---,0.00,0.00,VWS V14.01,2013-08-29 08:21:00,
2013-08-29 03:25:00,81.6,76.7,29.95,SE,140,0.0,4.2,85,0.00,,---,0.00,0.00,VWS V14.01,2013-08-29 08:25:00,
2013-08-29 03:26:00,81.6,76.7,29.95,SE,140,1.0,4.2,85,0.00,,---,0.00,0.00,VWS V14.01,2013-08-29 08:26:00,
2013-08-29 03:30:00,81.6,76.7,29.95,SE,140,1.0,5.2,85,0.00,,---,0.00,0.00,VWS V14.01,2013-08-29 08:30:00,
2013-08-29 03:31:00,81.6,76.7,29.95,SE,140,1.0,5.2,85,0.00,,---,0.00,0.00,VWS V14.01,2013-08-29 08:31:00,
2013-08-29 03:35:00,81.6,76.7,29.95,SE,140,1.0,6.2,85,0.00,,---,0.00,0.00,VWS V14.01,2013-08-29 08:35:00,
2013-08-29 03:36:00,81.6,76.7,29.95,SE,140,2.0,6.2,85,0.00,,---,0.00,0.00,VWS V14.01,2013-08-29 08:36:00,
2013-08-29 03:40:00,81.8,76.8,29.95,SE,140,2.0,5.2,85,0.00,,---,0.00,0.00,VWS V14.01,2013-08-29 08:40:00,
2013-08-29 03:41:00,81.8,76.8,29.95,SE,140,4.0,5.2,85,0.00,,---,0.00,0.00,VWS V14.01,2013-08-29 08:41:00,
2013-08-29 03:45:00,81.8,76.8,29.95,SE,140,0.0,4.2,85,0.00,,---,0.00,0.00,VWS V14.01,2013-08-29 08:45:00,
2013-08-29 03:46:00,81.8,76.8,29.95,SE,140,1.0,4.2,85,0.00,,---,0.00,0.00,VWS V14.01,2013-08-29 08:46:00,
2013-08-29 03:50:00,81.8,76.8,29.95,SE,140,0.0,3.2,85,0.00,,---,0.00,0.00,VWS V14.01,2013-08-29 08:50:00,
2013-08-29 03:51:00,81.8,76.8,29.95,SE,140,0.0,3.2,85,0.00,,---,0.00,0.00,VWS V14.01,2013-08-29 08:51:00,
2013-08-29 03:55:00,82.0,77.1,29.95,SE,140,0.0,3.2,85,0.00,,---,0.00,0.00,VWS V14.01,2013-08-29 08:55:00,
2013-08-29 03:56:00,82.0,77.1,29.95,SE,140,0.0,3.2,85,0.00,,---,0.00,0.00,VWS V14.01,2013-08-29 08:56:00,
2013-08-29 04:00:00,82.2,77.2,29.95,SE,140,0.0,3.2,85,0.00,,---,0.00,0.00,VWS V14.01,2013-08-29 09:00:00,
2013-08-29 04:01:00,82.2,77.2,29.95,SE,140,2.0,3.2,85,0.00,,---,0.00,0.00,VWS V14.01,2013-08-29 09:01:00,
2013-08-29 04:05:00,82.2,76.9,29.95,SE,140,0.0,3.2,84,0.00,,---,0.00,0.00,VWS V14.01,2013-08-29 09:05:00,
2013-08-29 04:06:00,82.2,76.9,29.95,SE,140,0.0,3.2,84,0.00,,---,0.00,0.00,VWS V14.01,2013-08-29 09:06:00,
2013-08-29 04:10:00,82.2,77.2,29.95,SE,140,0.0,2.2,85,0.00,,---,0.00,0.00,VWS V14.01,2013-08-29 09:10:00,
2013-08-29 04:11:00,82.2,77.2,29.95,SE,140,0.0,2.2,85,0.00,,---,0.00,0.00,VWS V14.01,2013-08-29 09:11:00,
2013-08-29 04:15:00,81.8,76.8,29.95,SE,140,0.0,2.2,85,0.00,,---,0.00,0.00,VWS V14.01,2013-08-29 09:15:00,
2013-08-29 04:16:00,81.8,76.8,29.95,SE,140,0.0,2.2,85,0.00,,---,0.00,0.00,VWS V14.01,2013-08-29 09:16:00,
2013-08-29 04:20:00,81.6,77.0,29.95,SE,140,0.0,1.2,86,0.00,,---,0.00,0.00,VWS V14.01,2013-08-29 09:20:00,
2013-08-29 04:21:00,81.6,77.0,29.95,SE,140,0.0,1.2,86,0.00,,---,0.00,0.00,VWS V14.01,2013-08-29 09:21:00,
2013-08-29 04:25:00,81.6,77.4,29.95,SE,140,0.0,2.2,87,0.00,,---,0.00,0.00,VWS V14.01,2013-08-29 09:25:00,
2013-08-29 04:26:00,81.6,77.0,29.95,SE,140,1.0,2.2,86,0.00,,---,0.00,0.00,VWS V14.01,2013-08-29 09:26:00,
2013-08-29 04:30:00,81.6,77.4,29.95,SE,140,0.0,2.2,87,0.00,,---,0.00,0.00,VWS V14.01,2013-08-29 09:30:00,
2013-08-29 04:31:00,81.6,77.4,29.95,SE,140,0.0,2.2,87,0.00,,---,0.00,0.00,VWS V14.01,2013-08-29 09:31:00,
2013-08-29 04:35:00,81.4,77.2,29.95,SE,140,0.0,4.2,87,0.00,,---,0.00,0.00,VWS V14.01,2013-08-29 09:35:00,
2013-08-29 04:36:00,81.4,77.2,29.95,SE,140,0.0,4.2,87,0.00,,---,0.00,0.00,VWS V14.01,2013-08-29 09:36:00,
2013-08-29 04:40:00,81.2,77.3,29.95,SE,140,0.0,1.2,88,0.00,,---,0.00,0.00,VWS V14.01,2013-08-29 09:40:00,
2013-08-29 04:41:00,81.2,77.0,29.95,SE,140,0.0,1.2,87,0.00,,---,0.00,0.00,VWS V14.01,2013-08-29 09:41:00,
2013-08-29 04:45:00,81.2,77.3,29.95,SE,140,0.0,1.2,88,0.00,,---,0.00,0.00,VWS V14.01,2013-08-29 09:45:00,
2013-08-29 04:46:00,81.2,77.3,29.95,SE,140,0.0,1.2,88,0.00,,---,0.00,0.00,VWS V14.01,2013-08-29 09:46:00,
2013-08-29 04:50:00,81.1,77.2,29.95,SE,140,0.0,1.2,88,0.00,,---,0.00,0.00,VWS V14.01,2013-08-29 09:50:00,
2013-08-29 04:51:00,81.1,77.2,29.95,SE,140,0.0,1.2,88,0.00,,---,0.00,0.00,VWS V14.01,2013-08-29 09:51:00,
2013-08-29 04:55:00,80.9,77.0,29.95,SE,140,0.0,1.2,88,0.00,,---,0.00,0.00,VWS V14.01,2013-08-29 09:55:00,
2013-08-29 04:56:00,80.9,77.0,29.95,SE,140,0.0,1.2,88,0.00,,---,0.00,0.00,VWS V14.01,2013-08-29 09:56:00,
2013-08-29 05:00:00,80.9,77.0,29.95,SE,140,0.0,1.2,88,0.00,,---,0.00,0.00,VWS V14.01,2013-08-29 10:00:00,
2013-08-29 05:01:00,80.9,77.0,29.95,SE,140,0.0,1.2,88,0.00,,---,0.00,0.00,VWS V14.01,2013-08-29 10:01:00,
2013-08-29 05:05:00,80.7,76.8,29.95,SE,140,0.0,1.2,88,0.00,,---,0.00,0.00,VWS V14.01,2013-08-29 10:05:00,
2013-08-29 05:06:00,80.7,76.8,29.95,SE,140,0.0,1.2,88,0.00,,---,0.00,0.00,VWS V14.01,2013-08-29 10:06:00,
2013-08-29 05:10:00,80.5,76.6,29.95,SE,140,0.0,1.2,88,0.00,,---,0.00,0.00,VWS V14.01,2013-08-29 10:10:00,
2013-08-29 05:15:00,80.5,77.0,29.95,SE,140,0.0,1.2,89,0.00,,---,0.00,0.00,VWS V14.01,2013-08-29 10:15:00,
2013-08-29 05:20:00,80.3,76.8,29.95,SE,140,0.0,1.2,89,0.00,,---,0.00,0.00,VWS V14.01,2013-08-29 10:20:00,
2013-08-29 05:25:00,80.1,76.6,29.95,SE,140,0.0,1.2,89,0.00,,---,0.00,0.00,VWS V14.01,2013-08-29 10:25:00,
2013-08-29 05:30:00,79.9,76.7,29.95,SE,140,0.0,1.2,90,0.00,,---,0.00,0.00,VWS V14.01,2013-08-29 10:30:00,
2013-08-29 05:35:00,79.8,76.6,29.95,SE,140,0.0,1.2,90,0.00,,---,0.00,0.00,VWS V14.01,2013-08-29 10:35:00,
2013-08-29 05:40:00,79.6,76.4,29.95,SE,140,0.0,1.2,90,0.00,,---,0.00,0.00,VWS V14.01,2013-08-29 10:40:00,
2013-08-29 05:45:00,79.4,76.6,29.96,SE,140,0.0,1.2,91,0.00,,---,0.00,0.00,VWS V14.01,2013-08-29 10:45:00,
2013-08-29 05:50:00,79.2,76.3,29.96,SE,140,0.0,1.2,91,0.00,,---,0.00,0.00,VWS V14.01,2013-08-29 10:50:00,
2013-08-29 05:55:00,79.0,76.5,29.96,SE,140,0.0,1.2,92,0.00,,---,0.00,0.00,VWS V14.01,2013-08-29 10:55:00,
2013-08-29 06:00:00,79.0,76.5,29.96,SE,140,0.0,1.2,92,0.00,,---,0.00,0.00,VWS V14.01,2013-08-29 11:00:00,
2013-08-29 06:05:00,78.8,76.3,29.96,SE,140,0.0,1.2,92,0.00,,---,0.00,0.00,VWS V14.01,2013-08-29 11:05:00,
2013-08-29 06:10:00,78.8,76.3,29.96,SE,140,0.0,1.2,92,0.00,,---,0.00,0.00,VWS V14.01,2013-08-29 11:10:00,
2013-08-29 06:15:00,78.6,76.1,29.96,SE,140,0.0,2.2,92,0.00,,---,0.00,0.00,VWS V14.01,2013-08-29 11:15:00,
2013-08-29 06:20:00,78.5,76.0,29.96,SE,140,0.0,1.2,92,0.00,,---,0.00,0.00,VWS V14.01,2013-08-29 11:20:00,
2013-08-29 06:25:00,78.3,76.1,29.96,SE,140,0.0,1.2,93,0.00,,---,0.00,0.00,VWS V14.01,2013-08-29 11:25:00,
2013-08-29 06:30:00,78.3,76.1,29.96,SE,140,0.0,1.2,93,0.00,,---,0.00,0.00,VWS V14.01,2013-08-29 11:30:00,
2013-08-29 06:35:00,78.1,75.9,29.96,SE,140,0.0,1.2,93,0.00,,---,0.00,0.00,VWS V14.01,2013-08-29 11:35:00,
2013-08-29 06:40:00,78.1,75.9,29.96,SE,140,0.0,1.2,93,0.00,,---,0.00,0.00,VWS V14.01,2013-08-29 11:40:00,
2013-08-29 06:45:00,78.1,75.9,29.96,SE,140,0.0,1.2,93,0.00,,---,0.00,0.00,VWS V14.01,2013-08-29 11:45:00,
2013-08-29 06:50:00,77.9,75.7,29.96,SE,140,0.0,1.2,93,0.00,,---,0.00,0.00,VWS V14.01,2013-08-29 11:50:00,
2013-08-29 06:55:00,77.9,76.0,29.96,SE,140,0.0,1.2,94,0.00,,---,0.00,0.00,VWS V14.01,2013-08-29 11:55:00,
2013-08-29 07:00:00,77.7,75.8,29.97,SE,140,0.0,1.2,94,0.00,,---,0.00,0.00,VWS V14.01,2013-08-29 12:00:00,
2013-08-29 07:05:00,77.6,75.7,29.97,SE,140,0.0,1.2,94,0.00,,---,0.00,0.00,VWS V14.01,2013-08-29 12:05:00,
2013-08-29 07:10:00,77.6,75.7,29.97,SE,140,0.0,1.2,94,0.00,,---,0.00,5.00,VWS V14.01,2013-08-29 12:10:00,
2013-08-29 07:15:00,77.6,75.7,29.97,SE,140,0.0,1.2,94,0.00,,---,0.00,9.00,VWS V14.01,2013-08-29 12:15:00,
2013-08-29 07:20:00,77.6,76.1,29.97,SE,140,0.0,1.2,95,0.00,,---,0.00,12.00,VWS V14.01,2013-08-29 12:20:00,
2013-08-29 07:25:00,77.6,76.1,29.97,SE,140,0.0,1.2,95,0.00,,---,0.00,16.00,VWS V14.01,2013-08-29 12:25:00,
2013-08-29 07:30:00,77.6,76.1,29.98,SE,140,0.0,1.2,95,0.00,,---,0.00,19.00,VWS V14.01,2013-08-29 12:30:00,
2013-08-29 07:35:00,77.4,75.9,29.98,SE,140,0.0,1.2,95,0.00,,---,0.00,23.00,VWS V14.01,2013-08-29 12:35:00,
2013-08-29 07:40:00,77.4,75.9,29.98,SE,140,0.0,1.2,95,0.00,,---,0.00,26.00,VWS V14.01,2013-08-29 12:40:00,
2013-08-29 07:45:00,77.6,76.1,29.98,SE,140,0.0,1.2,95,0.00,,---,0.00,30.00,VWS V14.01,2013-08-29 12:45:00,
2013-08-29 07:50:00,77.7,76.2,29.98,SE,140,0.0,1.2,95,0.00,,---,0.00,33.00,VWS V14.01,2013-08-29 12:50:00,
2013-08-29 07:55:00,77.9,76.4,29.98,SE,140,0.0,1.2,95,0.00,,---,0.00,40.00,VWS V14.01,2013-08-29 12:55:00,
2013-08-29 08:00:00,78.1,76.6,29.98,SE,140,0.0,1.2,95,0.00,,---,0.00,44.00,VWS V14.01,2013-08-29 13:00:00,
2013-08-29 08:05:00,78.3,76.8,29.98,SE,140,0.0,1.2,95,0.00,,---,0.00,51.00,VWS V14.01,2013-08-29 13:05:00,
2013-08-29 08:10:00,78.6,77.1,29.98,SE,140,0.0,1.2,95,0.00,,---,0.00,65.00,VWS V14.01,2013-08-29 13:10:00,
2013-08-29 08:15:00,79.0,77.4,29.99,SE,140,0.0,1.2,95,0.00,,---,0.00,134.00,VWS V14.01,2013-08-29 13:15:00,
2013-08-29 08:20:00,79.6,77.7,29.99,SE,140,0.0,1.2,94,0.00,,---,0.00,139.00,VWS V14.01,2013-08-29 13:20:00,
2013-08-29 08:25:00,80.3,78.4,29.99,SE,140,0.0,1.2,94,0.00,,---,0.00,134.00,VWS V14.01,2013-08-29 13:25:00,
2013-08-29 08:30:00,81.4,78.9,29.99,SE,140,0.0,1.2,92,0.00,,---,0.00,151.00,VWS V14.01,2013-08-29 13:30:00,
2013-08-29 08:35:00,82.6,79.4,29.99,SE,140,0.0,1.2,90,0.00,,---,0.00,192.00,VWS V14.01,2013-08-29 13:35:00,
2013-08-29 08:40:00,83.6,79.0,29.99,SE,140,0.0,1.2,86,0.00,,---,0.00,239.00,VWS V14.01,2013-08-29 13:40:00,
2013-08-29 08:45:00,84.1,78.4,29.99,SE,140,0.0,1.2,83,0.00,,---,0.00,287.00,VWS V14.01,2013-08-29 13:45:00,
2013-08-29 08:50:00,84.9,78.4,29.99,SE,140,1.0,4.2,81,0.00,,---,0.00,128.00,VWS V14.01,2013-08-29 13:50:00,
2013-08-29 08:55:00,85.3,78.1,29.99,SE,140,1.0,4.2,79,0.00,,---,0.00,230.00,VWS V14.01,2013-08-29 13:55:00,
2013-08-29 09:00:00,85.7,78.1,29.99,SE,140,1.0,4.2,78,0.00,,---,0.00,373.00,VWS V14.01,2013-08-29 14:00:00,
2013-08-29 09:05:00,85.7,77.7,29.99,ESE,117,4.0,5.2,77,0.00,,---,0.00,374.00,VWS V14.01,2013-08-29 14:05:00,
2013-08-29 09:10:00,85.7,77.7,29.99,ESE,117,3.0,6.2,77,0.00,,---,0.00,387.00,VWS V14.01,2013-08-29 14:10:00,
2013-08-29 09:15:00,85.9,77.9,29.99,ESE,117,2.0,5.2,77,0.00,,---,0.00,399.00,VWS V14.01,2013-08-29 14:15:00,
2013-08-29 09:20:00,86.1,78.1,29.99,ESE,117,1.0,5.2,77,0.00,,---,0.00,427.00,VWS V14.01,2013-08-29 14:20:00,
2013-08-29 09:25:00,86.3,78.2,29.99,ESE,117,2.0,5.2,77,0.00,,---,0.00,461.00,VWS V14.01,2013-08-29 14:25:00,
2013-08-29 09:30:00,87.0,78.5,29.99,ESE,103,2.0,5.2,76,0.00,,---,0.00,508.00,VWS V14.01,2013-08-29 14:30:00,
2013-08-29 09:35:00,87.2,77.9,29.99,ESE,102,2.0,6.2,74,0.00,,---,0.00,513.00,VWS V14.01,2013-08-29 14:35:00,
2013-08-29 09:40:00,87.2,78.3,29.99,East,93,2.0,6.2,75,0.00,,---,0.00,517.00,VWS V14.01,2013-08-29 14:40:00,
2013-08-29 09:45:00,87.4,78.5,29.99,East,88,4.0,7.2,75,0.00,,---,0.00,526.00,VWS V14.01,2013-08-29 14:45:00,
2013-08-29 09:50:00,87.0,77.7,29.99,East,88,3.0,6.2,74,0.00,,---,0.00,573.00,VWS V14.01,2013-08-29 14:50:00,
2013-08-29 09:55:00,87.2,78.3,29.99,East,88,0.0,5.2,75,0.00,,---,0.00,582.00,VWS V14.01,2013-08-29 14:55:00,
2013-08-29 10:00:00,87.6,77.9,29.99,East,88,2.0,6.2,73,0.00,,---,0.00,585.00,VWS V14.01,2013-08-29 15:00:00,
2013-08-29 10:05:00,87.2,77.5,29.99,East,80,2.0,7.2,73,0.00,,---,0.00,621.00,VWS V14.01,2013-08-29 15:05:00,
2013-08-29 10:10:00,87.8,77.2,29.99,ENE,67,3.0,8.2,71,0.00,,---,0.00,608.00,VWS V14.01,2013-08-29 15:10:00,
2013-08-29 10:15:00,87.6,77.5,29.99,ENE,67,3.0,8.2,72,0.00,,---,0.00,628.00,VWS V14.01,2013-08-29 15:15:00,
2013-08-29 10:20:00,87.6,77.9,29.99,ENE,63,3.0,6.2,73,0.00,,---,0.00,645.00,VWS V14.01,2013-08-29 15:20:00,
2013-08-29 10:25:00,88.2,78.0,29.99,ENE,65,6.0,10.2,72,0.00,,---,0.00,668.00,VWS V14.01,2013-08-29 15:25:00,
2013-08-29 10:30:00,88.4,77.4,29.99,ENE,65,5.0,7.2,70,0.00,,---,0.00,673.00,VWS V14.01,2013-08-29 15:30:00,
2013-08-29 10:35:00,88.0,77.4,29.99,ENE,66,5.0,7.2,71,0.00,,---,0.00,684.00,VWS V14.01,2013-08-29 15:35:00,
2013-08-29 10:40:00,88.2,77.2,29.99,ENE,66,1.0,7.2,70,0.00,,---,0.00,693.00,VWS V14.01,2013-08-29 15:40:00,
2013-08-29 10:45:00,88.6,77.1,29.99,ENE,59,4.0,7.2,69,0.00,,---,0.00,714.00,VWS V14.01,2013-08-29 15:45:00,
2013-08-29 10:50:00,88.4,77.4,29.99,ENE,63,2.0,10.2,70,0.00,,---,0.00,722.00,VWS V14.01,2013-08-29 15:50:00,
2013-08-29 10:55:00,88.2,77.2,29.99,ENE,64,4.0,7.2,70,0.00,,---,0.00,731.00,VWS V14.01,2013-08-29 15:55:00,
2013-08-29 11:00:00,88.2,77.6,29.99,ENE,63,5.0,8.2,71,0.00,,---,0.00,740.00,VWS V14.01,2013-08-29 16:00:00,
2013-08-29 11:05:00,88.6,77.1,29.99,NE,52,6.0,11.2,69,0.00,,---,0.00,754.00,VWS V14.01,2013-08-29 16:05:00,
2013-08-29 11:10:00,87.8,77.2,29.99,NE,53,6.0,8.2,71,0.00,,---,0.00,763.00,VWS V14.01,2013-08-29 16:10:00,
2013-08-29 11:15:00,88.4,78.2,29.99,ENE,59,1.0,8.2,72,0.00,,---,0.00,770.00,VWS V14.01,2013-08-29 16:15:00,
2013-08-29 11:20:00,89.3,77.8,29.99,NE,54,6.0,8.2,69,0.00,,---,0.00,782.00,VWS V14.01,2013-08-29 16:20:00,
2013-08-29 11:25:00,89.3,78.2,29.99,NE,54,4.0,7.2,70,0.00,,---,0.00,791.00,VWS V14.01,2013-08-29 16:25:00,
2013-08-29 11:30:00,88.8,77.3,29.99,ENE,57,3.0,7.2,69,0.00,,---,0.00,803.00,VWS V14.01,2013-08-29 16:30:00,
2013-08-29 11:35:00,88.6,77.1,29.99,NE,51,5.0,8.2,69,0.00,,---,0.00,814.00,VWS V14.01,2013-08-29 16:35:00,
2013-08-29 11:40:00,88.4,77.4,29.99,NE,51,3.0,8.2,70,0.00,,---,0.00,826.00,VWS V14.01,2013-08-29 16:40:00,
2013-08-29 11:45:00,89.5,77.1,29.99,East,80,3.0,12.2,67,0.00,,---,0.00,830.00,VWS V14.01,2013-08-29 16:45:00,
2013-08-29 11:50:00,89.7,77.3,29.99,ENE,75,5.0,8.2,67,0.00,,---,0.00,838.00,VWS V14.01,2013-08-29 16:50:00,
2013-08-29 11:55:00,89.9,76.6,29.99,ENE,63,6.0,9.2,65,0.00,,---,0.00,851.00,VWS V14.01,2013-08-29 16:55:00,
2013-08-29 12:00:00,89.7,76.8,29.99,ENE,66,6.0,11.2,66,0.00,,---,0.00,860.00,VWS V14.01,2013-08-29 17:00:00,
2013-08-29 12:05:00,89.0,76.6,29.99,East,88,2.0,9.2,67,0.00,,---,0.00,867.00,VWS V14.01,2013-08-29 17:05:00,
2013-08-29 12:10:00,89.0,76.2,29.99,East,88,2.0,8.2,66,0.00,,---,0.00,874.00,VWS V14.01,2013-08-29 17:10:00,
2013-08-29 12:15:00,89.0,76.2,29.99,East,89,2.0,7.2,66,0.00,,---,0.00,886.00,VWS V14.01,2013-08-29 17:15:00,
2013-08-29 12:20:00,89.5,75.7,29.98,East,89,3.0,7.2,64,0.00,,---,0.00,889.00,VWS V14.01,2013-08-29 17:20:00,
2013-08-29 12:25:00,90.5,76.2,29.98,East,87,5.0,8.2,63,0.00,,---,0.00,896.00,VWS V14.01,2013-08-29 17:25:00,
2013-08-29 12:30:00,90.7,76.4,29.98,East,94,6.0,7.2,63,0.00,,---,0.00,902.00,VWS V14.01,2013-08-29 17:30:00,
2013-08-29 12:35:00,90.5,74.7,29.98,East,84,5.0,8.2,60,0.00,,---,0.00,909.00,VWS V14.01,2013-08-29 17:35:00,
2013-08-29 12:40:00,90.7,73.9,29.98,East,84,3.0,8.2,58,0.00,,---,0.00,914.00,VWS V14.01,2013-08-29 17:40:00,
2013-08-29 12:45:00,90.3,75.0,29.98,East,84,2.0,8.2,61,0.00,,---,0.00,919.00,VWS V14.01,2013-08-29 17:45:00,
2013-08-29 12:50:00,90.1,75.3,29.98,NNE,32,5.0,12.2,62,0.00,,---,0.00,921.00,VWS V14.01,2013-08-29 17:50:00,
2013-08-29 12:55:00,90.7,76.4,29.98,NE,51,3.0,8.2,63,0.00,,---,0.00,926.00,VWS V14.01,2013-08-29 17:55:00,
2013-08-29 13:00:00,91.4,76.6,29.98,NE,55,5.0,10.2,62,0.00,,---,0.00,930.00,VWS V14.01,2013-08-29 18:00:00,
2013-08-29 13:05:00,90.3,75.5,29.98,ENE,58,4.0,11.2,62,0.00,,---,0.00,935.00,VWS V14.01,2013-08-29 18:05:00,
2013-08-29 13:10:00,90.1,75.8,29.98,ENE,65,5.0,10.2,63,0.00,,---,0.00,937.00,VWS V14.01,2013-08-29 18:10:00,
2013-08-29 13:15:00,89.9,75.6,29.98,NE,46,4.0,11.2,63,0.00,,---,0.00,939.00,VWS V14.01,2013-08-29 18:15:00,
2013-08-29 13:20:00,89.9,76.6,29.97,ENE,62,3.0,10.2,65,0.00,,---,0.00,939.00,VWS V14.01,2013-08-29 18:20:00,
2013-08-29 13:25:00,89.9,75.6,29.97,NE,53,7.0,10.2,63,0.00,,---,0.00,939.00,VWS V14.01,2013-08-29 18:25:00,
2013-08-29 13:30:00,90.1,75.8,29.97,ENE,63,4.0,11.2,63,0.00,,---,0.00,937.00,VWS V14.01,2013-08-29 18:30:00,
2013-08-29 13:35:00,90.3,76.5,29.96,East,82,5.0,11.2,64,0.00,,---,0.00,937.00,VWS V14.01,2013-08-29 18:35:00,
2013-08-29 13:40:00,90.5,76.2,29.96,ENE,63,3.0,11.2,63,0.00,,---,0.00,937.00,VWS V14.01,2013-08-29 18:40:00,
2013-08-29 13:45:00,90.1,76.3,29.96,ENE,60,7.0,14.2,64,0.00,,---,0.00,935.00,VWS V14.01,2013-08-29 18:45:00,
2013-08-29 13:50:00,90.3,76.0,29.96,ENE,76,5.0,11.2,63,0.00,,---,0.00,933.00,VWS V14.01,2013-08-29 18:50:00,
2013-08-29 13:55:00,90.5,76.2,29.96,ENE,59,2.0,11.2,63,0.00,,---,0.00,932.00,VWS V14.01,2013-08-29 18:55:00,
2013-08-29 14:00:00,91.0,76.7,29.96,ESE,109,3.0,11.2,63,0.00,,---,0.00,930.00,VWS V14.01,2013-08-29 19:00:00,
2013-08-29 14:05:00,90.7,76.8,29.96,East,86,5.0,11.2,64,0.00,,---,0.00,923.00,VWS V14.01,2013-08-29 19:05:00,
2013-08-29 14:10:00,90.5,76.2,29.96,ENE,71,3.0,10.2,63,0.00,,---,0.00,918.00,VWS V14.01,2013-08-29 19:10:00,
2013-08-29 14:15:00,90.5,76.2,29.96,East,88,6.0,12.2,63,0.00,,---,0.00,914.00,VWS V14.01,2013-08-29 19:15:00,
2013-08-29 14:20:00,90.5,76.7,29.95,NE,54,5.0,8.2,64,0.00,,---,0.00,909.00,VWS V14.01,2013-08-29 19:20:00,
2013-08-29 14:25:00,91.0,76.7,29.95,ENE,63,6.0,8.2,63,0.00,,---,0.00,905.00,VWS V14.01,2013-08-29 19:25:00,
2013-08-29 14:30:00,91.2,76.8,29.95,ESE,115,7.0,11.2,63,0.00,,---,0.00,902.00,VWS V14.01,2013-08-29 19:30:00,
2013-08-29 14:35:00,91.0,76.2,29.95,ESE,109,4.0,10.2,62,0.00,,---,0.00,896.00,VWS V14.01,2013-08-29 19:35:00,
2013-08-29 14:40:00,91.2,76.4,29.95,ESE,112,2.0,10.2,62,0.00,,---,0.00,889.00,VWS V14.01,2013-08-29 19:40:00,
2013-08-29 14:45:00,91.2,76.4,29.95,ENE,74,5.0,10.2,62,0.00,,---,0.00,882.00,VWS V14.01,2013-08-29 19:45:00,
2013-08-29 14:50:00,91.2,75.4,29.95,ENE,61,5.0,11.2,60,0.00,,---,0.00,875.00,VWS V14.01,2013-08-29 19:50:00,
2013-08-29 14:55:00,91.8,75.4,29.95,ENE,69,3.0,11.2,59,0.00,,---,0.00,868.00,VWS V14.01,2013-08-29 19:55:00,
2013-08-29 15:00:00,91.6,75.8,29.95,ESE,103,3.0,11.2,60,0.00,,---,0.00,858.00,VWS V14.01,2013-08-29 20:00:00,
2013-08-29 15:05:00,91.0,75.2,29.94,ESE,113,8.0,11.2,60,0.00,,---,0.00,849.00,VWS V14.01,2013-08-29 20:05:00,
2013-08-29 15:10:00,91.4,76.1,29.94,East,96,7.0,10.2,61,0.00,,---,0.00,840.00,VWS V14.01,2013-08-29 20:10:00,
2013-08-29 15:15:00,91.4,76.6,29.94,ENE,72,9.0,13.2,62,0.00,,---,0.00,831.00,VWS V14.01,2013-08-29 20:15:00,
2013-08-29 15:20:00,91.0,75.7,29.93,NE,50,4.0,13.2,61,0.00,,---,0.00,823.00,VWS V14.01,2013-08-29 20:20:00,
2013-08-29 15:25:00,91.4,76.6,29.93,East,98,5.0,9.2,62,0.00,,---,0.00,814.00,VWS V14.01,2013-08-29 20:25:00,
2013-08-29 15:30:00,91.2,76.4,29.93,East,84,4.0,10.2,62,0.00,,---,0.00,800.00,VWS V14.01,2013-08-29 20:30:00,
2013-08-29 15:35:00,90.5,75.7,29.93,ENE,62,9.0,14.2,62,0.00,,---,0.00,791.00,VWS V14.01,2013-08-29 20:35:00,
2013-08-29 15:40:00,89.9,76.6,29.93,ENE,74,2.0,10.2,65,0.00,,---,0.00,780.00,VWS V14.01,2013-08-29 20:40:00,
2013-08-29 15:45:00,91.0,77.1,29.93,East,99,9.0,10.2,64,0.00,,---,0.00,766.00,VWS V14.01,2013-08-29 20:45:00,
2013-08-29 15:49:00,91.4,77.0,29.92,East,82,6.0,11.2,63,0.00,,---,0.00,758.00,VWS V14.01,2013-08-29 20:49:00,
2013-08-29 15:50:00,91.0,76.2,29.92,East,86,5.0,11.2,62,0.00,,---,0.00,752.00,VWS V14.01,2013-08-29 20:50:00,
2013-08-29 15:54:00,90.7,76.8,29.92,East,90,4.0,10.2,64,0.00,,---,0.00,744.00,VWS V14.01,2013-08-29 20:54:00,
2013-08-29 15:55:00,90.5,75.7,29.92,ESE,106,4.0,12.2,62,0.00,,---,0.00,742.00,VWS V14.01,2013-08-29 20:55:00,
2013-08-29 15:59:00,90.5,76.7,29.92,ESE,103,6.0,11.2,64,0.00,,---,0.00,731.00,VWS V14.01,2013-08-29 20:59:00,
2013-08-29 16:00:00,90.5,76.7,29.92,SSE,147,6.0,11.2,64,0.00,,---,0.00,729.00,VWS V14.01,2013-08-29 21:00:00,
2013-08-29 16:04:00,90.5,76.2,29.92,East,91,7.0,12.2,63,0.00,,---,0.00,722.00,VWS V14.01,2013-08-29 21:04:00,
2013-08-29 16:05:00,90.3,76.5,29.92,East,96,7.0,12.2,64,0.00,,---,0.00,717.00,VWS V14.01,2013-08-29 21:05:00,
2013-08-29 16:09:00,89.9,77.0,29.92,East,101,11.0,13.2,66,0.00,,---,0.00,707.00,VWS V14.01,2013-08-29 21:09:00,
2013-08-29 16:10:00,90.3,77.4,29.92,East,80,5.0,13.2,66,0.00,,---,0.00,700.00,VWS V14.01,2013-08-29 21:10:00,
2013-08-29 16:14:00,91.4,77.5,29.92,East,89,8.0,11.2,64,0.00,,---,0.00,689.00,VWS V14.01,2013-08-29 21:14:00,
2013-08-29 16:15:00,91.4,77.0,29.92,ENE,65,8.0,13.2,63,0.00,,---,0.00,687.00,VWS V14.01,2013-08-29 21:15:00,
2013-08-29 16:19:00,91.2,76.4,29.92,East,80,5.0,13.2,62,0.00,,---,0.00,680.00,VWS V14.01,2013-08-29 21:19:00,
2013-08-29 16:20:00,90.5,76.2,29.92,ENE,65,9.0,14.2,63,0.00,,---,0.00,673.00,VWS V14.01,2013-08-29 21:20:00,
2013-08-29 16:24:00,90.1,76.3,29.92,East,88,9.0,12.2,64,0.00,,---,0.00,663.00,VWS V14.01,2013-08-29 21:24:00,
2013-08-29 16:25:00,89.9,75.6,29.92,East,92,9.0,14.2,63,0.00,,---,0.00,657.00,VWS V14.01,2013-08-29 21:25:00,
2013-08-29 16:29:00,89.9,75.6,29.92,East,88,5.0,13.2,63,0.00,,---,0.00,647.00,VWS V14.01,2013-08-29 21:29:00,
2013-08-29 16:30:00,90.1,76.3,29.91,ENE,78,6.0,13.2,64,0.00,,---,0.00,643.00,VWS V14.01,2013-08-29 21:30:00,
2013-08-29 16:34:00,90.1,76.8,29.91,ENE,62,6.0,12.2,65,0.00,,---,0.00,633.00,VWS V14.01,2013-08-29 21:34:00,
2013-08-29 16:35:00,89.9,76.1,29.91,East,80,9.0,14.2,64,0.00,,---,0.00,628.00,VWS V14.01,2013-08-29 21:35:00,
2013-08-29 16:39:00,90.1,76.8,29.91,East,93,3.0,12.2,65,0.00,,---,0.00,621.00,VWS V14.01,2013-08-29 21:39:00,
2013-08-29 16:40:00,90.5,76.2,29.91,East,101,6.0,12.2,63,0.00,,---,0.00,615.00,VWS V14.01,2013-08-29 21:40:00,
2013-08-29 16:44:00,91.0,76.2,29.91,SE,128,12.0,13.2,62,0.00,,---,0.00,603.00,VWS V14.01,2013-08-29 21:44:00,
2013-08-29 16:45:00,90.7,75.9,29.90,ESE,113,7.0,13.2,62,0.00,,---,0.00,594.00,VWS V14.01,2013-08-29 21:45:00,
2013-08-29 16:49:00,90.7,76.4,29.90,East,96,8.0,15.2,63,0.00,,---,0.00,587.00,VWS V14.01,2013-08-29 21:49:00,
2013-08-29 16:50:00,90.1,75.8,29.90,East,92,6.0,15.2,63,0.00,,---,0.00,584.00,VWS V14.01,2013-08-29 21:50:00,
2013-08-29 16:54:00,89.9,75.6,29.90,East,100,7.0,15.2,63,0.00,,---,0.00,568.00,VWS V14.01,2013-08-29 21:54:00,
2013-08-29 16:55:00,89.7,75.4,29.90,East,88,5.0,15.2,63,0.00,,---,0.00,566.00,VWS V14.01,2013-08-29 21:55:00,
2013-08-29 16:59:00,89.7,76.4,29.90,East,81,5.0,12.2,65,0.00,,---,0.00,555.00,VWS V14.01,2013-08-29 21:59:00,
2013-08-29 17:00:00,89.7,76.8,29.90,East,96,5.0,12.2,66,0.00,,---,0.00,545.00,VWS V14.01,2013-08-29 22:00:00,
2013-08-29 17:04:00,89.9,75.6,29.90,East,92,6.0,14.2,63,0.00,,---,0.00,536.00,VWS V14.01,2013-08-29 22:04:00,
2013-08-29 17:05:00,89.9,76.6,29.90,SE,126,4.0,14.2,65,0.00,,---,0.00,534.00,VWS V14.01,2013-08-29 22:05:00,
2013-08-29 17:09:00,90.3,76.9,29.90,East,92,5.0,13.2,65,0.00,,---,0.00,520.00,VWS V14.01,2013-08-29 22:09:00,
2013-08-29 17:10:00,90.5,77.1,29.90,East,84,5.0,16.2,65,0.00,,---,0.00,517.00,VWS V14.01,2013-08-29 22:10:00,
2013-08-29 17:14:00,89.9,76.6,29.90,ESE,113,6.0,14.2,65,0.00,,---,0.00,504.00,VWS V14.01,2013-08-29 22:14:00,
2013-08-29 17:15:00,89.7,76.4,29.90,East,80,5.0,14.2,65,0.00,,---,0.00,496.00,VWS V14.01,2013-08-29 22:15:00,
2013-08-29 17:19:00,89.5,75.7,29.90,ESE,123,12.0,13.2,64,0.00,,---,0.00,485.00,VWS V14.01,2013-08-29 22:19:00,
2013-08-29 17:20:00,89.5,75.7,29.90,ESE,115,11.0,13.2,64,0.00,,---,0.00,482.00,VWS V14.01,2013-08-29 22:20:00,
2013-08-29 17:24:00,89.5,74.8,29.90,ESE,122,3.0,13.2,62,0.00,,---,0.00,471.00,VWS V14.01,2013-08-29 22:24:00,
2013-08-29 17:25:00,89.7,75.4,29.90,East,100,5.0,13.2,63,0.00,,---,0.00,462.00,VWS V14.01,2013-08-29 22:25:00,
2013-08-29 17:29:00,89.9,77.0,29.90,ESE,107,8.0,12.2,66,0.00,,---,0.00,450.00,VWS V14.01,2013-08-29 22:29:00,
2013-08-29 17:30:00,89.9,76.6,29.90,ESE,115,6.0,12.2,65,0.00,,---,0.00,445.00,VWS V14.01,2013-08-29 22:30:00,
2013-08-29 17:34:00,90.3,76.9,29.90,ESE,110,6.0,12.2,65,0.00,,---,0.00,429.00,VWS V14.01,2013-08-29 22:34:00,
2013-08-29 17:35:00,90.3,76.9,29.90,ESE,123,3.0,13.2,65,0.00,,---,0.00,424.00,VWS V14.01,2013-08-29 22:35:00,
2013-08-29 17:39:00,89.9,76.1,29.90,ESE,108,8.0,14.2,64,0.00,,---,0.00,415.00,VWS V14.01,2013-08-29 22:39:00,
2013-08-29 17:40:00,89.5,75.7,29.90,East,90,3.0,14.2,64,0.00,,---,0.00,410.00,VWS V14.01,2013-08-29 22:40:00,
2013-08-29 17:44:00,89.0,75.2,29.90,East,99,7.0,15.2,64,0.00,,---,0.00,394.00,VWS V14.01,2013-08-29 22:44:00,
2013-08-29 17:45:00,89.0,75.7,29.90,ESE,123,6.0,15.2,65,0.00,,---,0.00,387.00,VWS V14.01,2013-08-29 22:45:00,
2013-08-29 17:49:00,89.0,76.2,29.90,ESE,103,5.0,11.2,66,0.00,,---,0.00,374.00,VWS V14.01,2013-08-29 22:49:00,
2013-08-29 17:50:00,89.3,76.5,29.90,ESE,120,7.0,13.2,66,0.00,,---,0.00,369.00,VWS V14.01,2013-08-29 22:50:00,
2013-08-29 17:54:00,88.8,75.5,29.90,ESE,123,10.0,13.2,65,0.00,,---,0.00,357.00,VWS V14.01,2013-08-29 22:54:00,
2013-08-29 17:55:00,88.6,75.3,29.90,ESE,117,4.0,13.2,65,0.00,,---,0.00,348.00,VWS V14.01,2013-08-29 22:55:00,
2013-08-29 17:59:00,89.0,75.7,29.90,ESE,106,4.0,15.2,65,0.00,,---,0.00,338.00,VWS V14.01,2013-08-29 22:59:00,
2013-08-29 18:00:00,89.3,75.1,29.90,ESE,109,5.0,15.2,63,0.00,,---,0.00,332.00,VWS V14.01,2013-08-29 23:00:00,
2013-08-29 18:04:00,89.5,76.2,29.90,East,96,7.0,13.2,65,0.00,,---,0.00,318.00,VWS V14.01,2013-08-29 23:04:00,
2013-08-29 18:05:00,89.0,75.7,29.90,ESE,111,6.0,13.2,65,0.00,,---,0.00,311.00,VWS V14.01,2013-08-29 23:05:00,
2013-08-29 18:09:00,88.8,76.4,29.90,SE,132,6.0,13.2,67,0.00,,---,0.00,301.00,VWS V14.01,2013-08-29 23:09:00,
2013-08-29 18:10:00,88.6,76.2,29.90,SE,124,7.0,13.2,67,0.00,,---,0.00,295.00,VWS V14.01,2013-08-29 23:10:00,
2013-08-29 18:14:00,88.2,76.8,29.90,SE,130,5.0,12.2,69,0.00,,---,0.00,283.00,VWS V14.01,2013-08-29 23:14:00,
2013-08-29 18:15:00,88.2,76.8,29.90,SE,135,10.0,12.2,69,0.00,,---,0.00,278.00,VWS V14.01,2013-08-29 23:15:00,
2013-08-29 18:19:00,88.2,76.8,29.90,East,87,5.0,14.2,69,0.00,,---,0.00,264.00,VWS V14.01,2013-08-29 23:19:00,
2013-08-29 18:20:00,88.2,76.8,29.90,ESE,118,7.0,14.2,69,0.00,,---,0.00,258.00,VWS V14.01,2013-08-29 23:20:00,
2013-08-29 18:24:00,88.0,76.6,29.90,SSE,151,10.0,13.2,69,0.00,,---,0.00,244.00,VWS V14.01,2013-08-29 23:24:00,
2013-08-29 18:25:00,88.2,77.2,29.90,SE,142,3.0,13.2,70,0.00,,---,0.00,237.00,VWS V14.01,2013-08-29 23:25:00,
2013-08-29 18:29:00,88.4,77.4,29.90,ESE,117,6.0,12.2,70,0.00,,---,0.00,223.00,VWS V14.01,2013-08-29 23:29:00,
2013-08-29 18:30:00,88.2,77.2,29.90,East,97,5.0,12.2,70,0.00,,---,0.00,216.00,VWS V14.01,2013-08-29 23:30:00,
2013-08-29 18:34:00,88.0,77.0,29.90,SE,143,9.0,11.2,70,0.00,,---,0.00,207.00,VWS V14.01,2013-08-29 23:34:00,
2013-08-29 18:35:00,87.8,75.9,29.90,South,169,10.0,14.2,68,0.00,,---,0.00,199.00,VWS V14.01,2013-08-29 23:35:00,
2013-08-29 18:39:00,87.4,76.4,29.90,SE,134,7.0,14.2,70,0.00,,---,0.00,185.00,VWS V14.01,2013-08-29 23:39:00,
2013-08-29 18:40:00,87.4,76.4,29.90,SE,130,6.0,14.2,70,0.00,,---,0.00,176.00,VWS V14.01,2013-08-29 23:40:00,
2013-08-29 18:44:00,87.4,76.0,29.90,ESE,111,5.0,13.2,69,0.00,,---,0.00,162.00,VWS V14.01,2013-08-29 23:44:00,
2013-08-29 18:45:00,87.4,76.0,29.90,SE,131,8.0,13.2,69,0.00,,---,0.00,155.00,VWS V14.01,2013-08-29 23:45:00,
2013-08-29 18:49:00,87.4,76.8,29.90,ESE,107,4.0,11.2,71,0.00,,---,0.00,146.00,VWS V14.01,2013-08-29 23:49:00,
2013-08-29 18:50:00,87.6,76.6,29.90,ESE,121,6.0,11.2,70,0.00,,---,0.00,139.00,VWS V14.01,2013-08-29 23:50:00,
2013-08-29 18:54:00,87.4,76.8,29.90,ESE,113,5.0,16.2,71,0.00,,---,0.00,125.00,VWS V14.01,2013-08-29 23:54:00,
2013-08-29 18:55:00,87.2,76.2,29.90,ESE,117,1.0,16.2,70,0.00,,---,0.00,118.00,VWS V14.01,2013-08-29 23:55:00,
2013-08-29 18:59:00,87.2,76.7,29.90,ESE,106,4.0,8.2,71,0.00,,---,0.00,105.00,VWS V14.01,2013-08-29 23:59:00,
2013-08-29 19:00:00,87.0,76.5,29.90,East,96,7.0,8.2,71,0.00,,---,0.00,98.00,VWS V14.01,2013-08-30 00:00:00,
2013-08-29 19:04:00,86.7,76.6,29.90,SSE,153,10.0,13.2,72,0.00,,---,0.00,88.00,VWS V14.01,2013-08-30 00:04:00,
2013-08-29 19:05:00,86.3,76.2,29.90,SE,139,4.0,13.2,72,0.00,,---,0.00,84.00,VWS V14.01,2013-08-30 00:05:00,
2013-08-29 19:09:00,86.1,76.0,29.90,SE,143,5.0,11.2,72,0.00,,---,0.00,74.00,VWS V14.01,2013-08-30 00:09:00,
2013-08-29 19:10:00,86.1,76.0,29.90,SE,140,3.0,11.2,72,0.00,,---,0.00,67.00,VWS V14.01,2013-08-30 00:10:00,
2013-08-29 19:14:00,86.1,76.4,29.90,SE,136,6.0,12.2,73,0.00,,---,0.00,37.00,VWS V14.01,2013-08-30 00:14:00,
2013-08-29 19:15:00,86.1,76.4,29.90,ESE,106,7.0,12.2,73,0.00,,---,0.00,33.00,VWS V14.01,2013-08-30 00:15:00,
2013-08-29 19:19:00,86.5,76.8,29.90,SE,134,3.0,11.2,73,0.00,,---,0.00,32.00,VWS V14.01,2013-08-30 00:19:00,
2013-08-29 19:20:00,86.7,76.2,29.90,SE,139,3.0,11.2,71,0.00,,---,0.00,30.00,VWS V14.01,2013-08-30 00:20:00,
2013-08-29 19:24:00,86.5,76.0,29.90,SSE,153,9.0,13.2,71,0.00,,---,0.00,28.00,VWS V14.01,2013-08-30 00:24:00,
2013-08-29 19:25:00,86.1,76.0,29.90,SSE,148,8.0,13.2,72,0.00,,---,0.00,26.00,VWS V14.01,2013-08-30 00:25:00,
2013-08-29 19:29:00,85.7,76.1,29.90,ESE,112,5.0,12.2,73,0.00,,---,0.00,23.00,VWS V14.01,2013-08-30 00:29:00,
2013-08-29 19:30:00,85.7,76.1,29.90,SE,130,6.0,12.2,73,0.00,,---,0.00,21.00,VWS V14.01,2013-08-30 00:30:00,
2013-08-29 19:34:00,85.5,75.9,29.90,SE,146,4.0,11.2,73,0.00,,---,0.00,18.00,VWS V14.01,2013-08-30 00:34:00,
2013-08-29 19:35:00,85.3,75.7,29.90,SSE,161,5.0,11.2,73,0.00,,---,0.00,16.00,VWS V14.01,2013-08-30 00:35:00,
2013-08-29 19:39:00,85.3,76.1,29.90,SE,134,11.0,12.2,74,0.00,,---,0.00,14.00,VWS V14.01,2013-08-30 00:39:00,
2013-08-29 19:40:00,85.3,76.1,29.90,SE,141,4.0,13.2,74,0.00,,---,0.00,12.00,VWS V14.01,2013-08-30 00:40:00,
2013-08-29 19:44:00,85.5,76.3,29.90,SE,135,2.0,12.2,74,0.00,,---,0.00,9.00,VWS V14.01,2013-08-30 00:44:00,
2013-08-29 19:45:00,85.7,76.5,29.90,SE,140,4.0,12.2,74,0.00,,---,0.00,9.00,VWS V14.01,2013-08-30 00:45:00,
2013-08-29 19:49:00,85.7,76.9,29.90,SE,140,6.0,9.2,75,0.00,,---,0.00,5.00,VWS V14.01,2013-08-30 00:49:00,
2013-08-29 19:50:00,85.3,76.5,29.90,ESE,121,6.0,10.2,75,0.00,,---,0.00,5.00,VWS V14.01,2013-08-30 00:50:00,
2013-08-29 19:54:00,84.9,76.1,29.90,SE,124,6.0,14.2,75,0.00,,---,0.00,0.00,VWS V14.01,2013-08-30 00:54:00,
2013-08-29 19:55:00,84.7,76.3,29.90,SE,130,7.0,14.2,76,0.00,,---,0.00,0.00,VWS V14.01,2013-08-30 00:55:00,
2013-08-29 19:59:00,84.7,76.3,29.90,SSE,157,5.0,13.2,76,0.00,,---,0.00,0.00,VWS V14.01,2013-08-30 00:59:00,
2013-08-29 20:00:00,84.5,76.1,29.90,SE,137,4.0,13.2,76,0.00,,---,0.00,0.00,VWS V14.01,2013-08-30 01:00:00,
2013-08-29 20:04:00,84.3,75.5,29.90,SE,144,3.0,12.2,75,0.00,,---,0.00,0.00,VWS V14.01,2013-08-30 01:04:00,
2013-08-29 20:05:00,84.3,75.9,29.90,South,183,3.0,12.2,76,0.00,,---,0.00,0.00,VWS V14.01,2013-08-30 01:05:00,
2013-08-29 20:09:00,84.3,75.9,29.90,SSE,147,5.0,9.2,76,0.00,,---,0.00,0.00,VWS V14.01,2013-08-30 01:09:00,
2013-08-29 20:10:00,84.3,75.9,29.90,SSE,147,3.0,9.2,76,0.00,,---,0.00,0.00,VWS V14.01,2013-08-30 01:10:00,
2013-08-29 20:14:00,84.5,76.5,29.90,SE,132,6.0,10.2,77,0.00,,---,0.00,0.00,VWS V14.01,2013-08-30 01:14:00,
2013-08-29 20:15:00,84.9,76.9,29.90,SE,132,4.0,10.2,77,0.00,,---,0.00,0.00,VWS V14.01,2013-08-30 01:15:00,
2013-08-29 20:19:00,85.1,76.7,29.90,SE,131,4.0,10.2,76,0.00,,---,0.00,0.00,VWS V14.01,2013-08-30 01:19:00,
2013-08-29 20:20:00,85.1,76.7,29.90,SE,144,7.0,11.2,76,0.00,,---,0.00,0.00,VWS V14.01,2013-08-30 01:20:00,
2013-08-29 20:24:00,84.9,76.5,29.90,SSE,153,4.0,11.2,76,0.00,,---,0.00,0.00,VWS V14.01,2013-08-30 01:24:00,
2013-08-29 20:25:00,84.7,76.3,29.90,SSE,150,5.0,11.2,76,0.00,,---,0.00,0.00,VWS V14.01,2013-08-30 01:25:00,
2013-08-29 20:29:00,84.7,76.3,29.90,SE,142,4.0,8.2,76,0.00,,---,0.00,0.00,VWS V14.01,2013-08-30 01:29:00,
2013-08-29 20:30:00,84.5,75.3,29.91,SE,139,2.0,11.2,74,0.00,,---,0.00,0.00,VWS V14.01,2013-08-30 01:30:00,
2013-08-29 20:34:00,84.7,76.3,29.91,SE,145,3.0,8.2,76,0.00,,---,0.00,0.00,VWS V14.01,2013-08-30 01:34:00,
2013-08-29 20:35:00,84.7,76.3,29.91,SE,142,4.0,11.2,76,0.00,,---,0.00,0.00,VWS V14.01,2013-08-30 01:35:00,
2013-08-29 20:39:00,84.5,76.5,29.91,SSE,148,10.0,13.2,77,0.00,,---,0.00,0.00,VWS V14.01,2013-08-30 01:39:00,
2013-08-29 20:40:00,84.3,76.3,29.91,SSE,157,4.0,13.2,77,0.00,,---,0.00,0.00,VWS V14.01,2013-08-30 01:40:00,
2013-08-29 20:44:00,84.1,76.1,29.91,SSE,155,3.0,9.2,77,0.00,,---,0.00,0.00,VWS V14.01,2013-08-30 01:44:00,
2013-08-29 20:45:00,84.3,76.7,29.91,SSE,154,2.0,9.2,78,0.00,,---,0.00,0.00,VWS V14.01,2013-08-30 01:45:00,
2013-08-29 20:49:00,84.3,76.3,29.91,SE,140,6.0,10.2,77,0.00,,---,0.00,0.00,VWS V14.01,2013-08-30 01:49:00,
2013-08-29 20:50:00,84.3,76.3,29.91,SE,141,6.0,10.2,77,0.00,,---,0.00,0.00,VWS V14.01,2013-08-30 01:50:00,
2013-08-29 20:54:00,84.1,76.1,29.91,SE,142,5.0,8.2,77,0.00,,---,0.00,0.00,VWS V14.01,2013-08-30 01:54:00,
2013-08-29 20:55:00,84.1,76.1,29.91,SSE,147,5.0,10.2,77,0.00,,---,0.00,0.00,VWS V14.01,2013-08-30 01:55:00,
2013-08-29 20:59:00,84.0,76.4,29.91,SSE,150,4.0,11.2,78,0.00,,---,0.00,0.00,VWS V14.01,2013-08-30 01:59:00,
2013-08-29 21:00:00,84.0,76.4,29.92,SSE,149,2.0,11.2,78,0.00,,---,0.00,0.00,VWS V14.01,2013-08-30 02:00:00,
2013-08-29 21:04:00,83.8,76.2,29.92,SSE,151,6.0,13.2,78,0.00,,---,0.00,0.00,VWS V14.01,2013-08-30 02:04:00,
2013-08-29 21:05:00,83.8,76.2,29.92,SSE,147,3.0,13.2,78,0.00,,---,0.00,0.00,VWS V14.01,2013-08-30 02:05:00,
2013-08-29 21:09:00,83.8,76.2,29.92,SSE,147,0.0,7.2,78,0.00,,---,0.00,0.00,VWS V14.01,2013-08-30 02:09:00,
2013-08-29 21:10:00,83.8,76.2,29.92,SSE,163,3.0,10.2,78,0.00,,---,0.00,0.00,VWS V14.01,2013-08-30 02:10:00,
2013-08-29 21:14:00,83.6,76.4,29.92,SE,146,5.0,11.2,79,0.00,,---,0.00,0.00,VWS V14.01,2013-08-30 02:14:00,
2013-08-29 21:15:00,83.8,76.6,29.91,SE,124,5.0,11.2,79,0.00,,---,0.00,0.00,VWS V14.01,2013-08-30 02:15:00,
2013-08-29 21:19:00,84.1,76.1,29.91,SE,130,6.0,8.2,77,0.00,,---,0.00,0.00,VWS V14.01,2013-08-30 02:19:00,
2013-08-29 21:20:00,84.3,76.3,29.91,SSE,148,4.0,9.2,77,0.00,,---,0.00,0.00,VWS V14.01,2013-08-30 02:20:00,
2013-08-29 21:24:00,84.1,76.1,29.91,SE,127,6.0,13.2,77,0.00,,---,0.00,0.00,VWS V14.01,2013-08-30 02:24:00,
2013-08-29 21:25:00,84.1,76.1,29.91,SE,143,4.0,13.2,77,0.00,,---,0.00,0.00,VWS V14.01,2013-08-30 02:25:00,
2013-08-29 21:29:00,84.1,76.1,29.91,SSE,153,6.0,13.2,77,0.00,,---,0.00,0.00,VWS V14.01,2013-08-30 02:29:00,
2013-08-29 21:30:00,84.0,76.0,29.91,SSE,150,2.0,13.2,77,0.00,,---,0.00,0.00,VWS V14.01,2013-08-30 02:30:00,
2013-08-29 21:34:00,84.1,76.1,29.91,SE,144,1.0,8.2,77,0.00,,---,0.00,0.00,VWS V14.01,2013-08-30 02:34:00,
2013-08-29 21:35:00,84.1,76.1,29.91,SE,142,5.0,10.2,77,0.00,,---,0.00,0.00,VWS V14.01,2013-08-30 02:35:00,
2013-08-29 21:39:00,84.0,76.0,29.91,SSE,151,5.0,8.2,77,0.00,,---,0.00,0.00,VWS V14.01,2013-08-30 02:39:00,
2013-08-29 21:40:00,84.0,76.0,29.91,SE,142,4.0,8.2,77,0.00,,---,0.00,0.00,VWS V14.01,2013-08-30 02:40:00,
2013-08-29 21:44:00,83.8,76.2,29.91,SE,143,3.0,10.2,78,0.00,,---,0.00,0.00,VWS V14.01,2013-08-30 02:44:00,
2013-08-29 21:45:00,83.8,76.2,29.92,SE,140,7.0,10.2,78,0.00,,---,0.00,0.00,VWS V14.01,2013-08-30 02:45:00,
2013-08-29 21:49:00,84.0,76.4,29.92,SE,140,5.0,10.2,78,0.00,,---,0.00,0.00,VWS V14.01,2013-08-30 02:49:00,
2013-08-29 21:50:00,84.0,76.4,29.92,SE,146,4.0,10.2,78,0.00,,---,0.00,0.00,VWS V14.01,2013-08-30 02:50:00,
2013-08-29 21:54:00,84.0,76.0,29.92,SSE,159,2.0,6.2,77,0.00,,---,0.00,0.00,VWS V14.01,2013-08-30 02:54:00,
2013-08-29 21:55:00,84.0,76.0,29.92,SE,131,5.0,8.2,77,0.00,,---,0.00,0.00,VWS V14.01,2013-08-30 02:55:00,
2013-08-29 21:59:00,83.8,75.8,29.92,SE,146,4.0,8.2,77,0.00,,---,0.00,0.00,VWS V14.01,2013-08-30 02:59:00,
2013-08-29 22:00:00,83.8,75.8,29.92,SSE,147,3.0,8.2,77,0.00,,---,0.00,0.00,VWS V14.01,2013-08-30 03:00:00,
2013-08-29 22:04:00,83.6,75.6,29.92,SSE,148,5.0,8.2,77,0.00,,---,0.00,0.00,VWS V14.01,2013-08-30 03:04:00,
2013-08-29 22:05:00,83.6,75.6,29.92,SSE,151,2.0,8.2,77,0.00,,---,0.00,0.00,VWS V14.01,2013-08-30 03:05:00,
2013-08-29 22:09:00,83.4,75.4,29.92,SE,146,4.0,7.2,77,0.00,,---,0.00,0.00,VWS V14.01,2013-08-30 03:09:00,
2013-08-29 22:10:00,83.4,75.8,29.92,SSE,155,2.0,9.2,78,0.00,,---,0.00,0.00,VWS V14.01,2013-08-30 03:10:00,
2013-08-29 22:14:00,83.4,75.8,29.92,SSE,157,3.0,8.2,78,0.00,,---,0.00,0.00,VWS V14.01,2013-08-30 03:14:00,
2013-08-29 22:15:00,83.4,75.8,29.92,SSE,157,1.0,8.2,78,0.00,,---,0.00,0.00,VWS V14.01,2013-08-30 03:15:00,
2013-08-29 22:19:00,83.4,75.8,29.92,SSE,157,4.0,5.2,78,0.00,,---,0.00,0.00,VWS V14.01,2013-08-30 03:19:00,
2013-08-29 22:20:00,83.6,76.4,29.92,SSE,157,2.0,6.2,79,0.00,,---,0.00,0.00,VWS V14.01,2013-08-30 03:20:00,
2013-08-29 22:24:00,83.8,76.6,29.92,SSE,157,0.0,4.2,79,0.00,,---,0.00,0.00,VWS V14.01,2013-08-30 03:24:00,
2013-08-29 22:25:00,83.8,76.2,29.92,SSE,157,1.0,4.2,78,0.00,,---,0.00,0.00,VWS V14.01,2013-08-30 03:25:00,
2013-08-29 22:29:00,83.8,76.2,29.92,SSE,157,2.0,5.2,78,0.00,,---,0.00,0.00,VWS V14.01,2013-08-30 03:29:00,
2013-08-29 22:30:00,83.8,76.2,29.92,SSE,157,1.0,5.2,78,0.00,,---,0.00,0.00,VWS V14.01,2013-08-30 03:30:00,
2013-08-29 22:34:00,83.8,76.2,29.92,SSE,157,0.0,6.2,78,0.00,,---,0.00,0.00,VWS V14.01,2013-08-30 03:34:00,
2013-08-29 22:35:00,83.8,76.2,29.92,SSE,151,5.0,6.2,78,0.00,,---,0.00,0.00,VWS V14.01,2013-08-30 03:35:00,
2013-08-29 22:39:00,83.8,76.2,29.92,SSE,153,2.0,6.2,78,0.00,,---,0.00,0.00,VWS V14.01,2013-08-30 03:39:00,
2013-08-29 22:40:00,83.6,76.0,29.92,SSE,153,2.0,6.2,78,0.00,,---,0.00,0.00,VWS V14.01,2013-08-30 03:40:00,
2013-08-29 22:44:00,83.6,76.0,29.92,SSE,154,1.0,7.2,78,0.00,,---,0.00,0.00,VWS V14.01,2013-08-30 03:44:00,
2013-08-29 22:45:00,83.4,75.8,29.92,SSE,153,4.0,7.2,78,0.00,,---,0.00,0.00,VWS V14.01,2013-08-30 03:45:00,
2013-08-29 22:49:00,83.4,76.2,29.92,SSE,153,2.0,6.2,79,0.00,,---,0.00,0.00,VWS V14.01,2013-08-30 03:49:00,
2013-08-29 22:50:00,83.2,76.0,29.92,SSE,153,1.0,6.2,79,0.00,,---,0.00,0.00,VWS V14.01,2013-08-30 03:50:00,
2013-08-29 22:54:00,83.2,76.0,29.92,SSE,153,2.0,6.2,79,0.00,,---,0.00,0.00,VWS V14.01,2013-08-30 03:54:00,
2013-08-29 22:55:00,83.4,75.8,29.92,SSE,153,1.0,6.2,78,0.00,,---,0.00,0.00,VWS V14.01,2013-08-30 03:55:00,
2013-08-29 22:59:00,83.4,75.8,29.92,SSE,159,3.0,7.2,78,0.00,,---,0.00,0.00,VWS V14.01,2013-08-30 03:59:00,
2013-08-29 23:00:00,83.4,75.8,29.92,SSE,160,4.0,7.2,78,0.00,,---,0.00,0.00,VWS V14.01,2013-08-30 04:00:00,
2013-08-29 23:01:00,83.4,75.8,29.92,SSE,159,3.0,7.2,78,0.00,,---,0.00,0.00,VWS V14.01,2013-08-30 04:01:00,
2013-08-29 23:05:00,83.2,77.1,29.92,SSE,163,4.0,8.2,82,0.00,,---,0.00,0.00,VWS V14.01,2013-08-30 04:05:00,
2013-08-29 23:06:00,83.2,77.1,29.92,SSE,163,3.0,8.2,82,0.00,,---,0.00,0.00,VWS V14.01,2013-08-30 04:06:00,
2013-08-29 23:10:00,83.0,76.2,29.92,SSE,164,3.0,6.2,80,0.00,,---,0.00,0.00,VWS V14.01,2013-08-30 04:10:00,
2013-08-29 23:11:00,83.0,76.2,29.92,SSE,164,3.0,6.2,80,0.00,,---,0.00,0.00,VWS V14.01,2013-08-30 04:11:00,
2013-08-29 23:15:00,83.0,76.2,29.92,SSE,155,3.0,7.2,80,0.00,,---,0.00,0.00,VWS V14.01,2013-08-30 04:15:00,
2013-08-29 23:16:00,83.0,76.2,29.92,SSE,155,3.0,7.2,80,0.00,,---,0.00,0.00,VWS V14.01,2013-08-30 04:16:00,
2013-08-29 23:20:00,82.8,76.4,29.92,SSE,155,0.0,7.2,81,0.00,,---,0.00,0.00,VWS V14.01,2013-08-30 04:20:00,
2013-08-29 23:21:00,82.8,76.4,29.92,SSE,155,0.0,7.2,81,0.00,,---,0.00,0.00,VWS V14.01,2013-08-30 04:21:00,
2013-08-29 23:25:00,82.8,76.4,29.92,SSE,155,2.0,6.2,81,0.00,,---,0.00,0.00,VWS V14.01,2013-08-30 04:25:00,
2013-08-29 23:26:00,82.8,76.4,29.92,SSE,155,2.0,6.2,81,0.00,,---,0.00,0.00,VWS V14.01,2013-08-30 04:26:00,
2013-08-29 23:30:00,82.8,76.4,29.92,SSE,155,0.0,6.2,81,0.00,,---,0.00,0.00,VWS V14.01,2013-08-30 04:30:00,
2013-08-29 23:31:00,82.8,76.4,29.92,SSE,155,1.0,6.2,81,0.00,,---,0.00,0.00,VWS V14.01,2013-08-30 04:31:00,
2013-08-29 23:35:00,83.0,76.2,29.92,South,185,2.0,8.2,80,0.00,,---,0.00,0.00,VWS V14.01,2013-08-30 04:35:00,
2013-08-29 23:36:00,83.0,76.2,29.92,South,185,3.0,8.2,80,0.00,,---,0.00,0.00,VWS V14.01,2013-08-30 04:36:00,
2013-08-29 23:40:00,83.2,76.4,29.92,SSE,148,4.0,10.2,80,0.00,,---,0.00,0.00,VWS V14.01,2013-08-30 04:40:00,
2013-08-29 23:41:00,83.2,76.4,29.92,SSE,148,5.0,10.2,80,0.00,,---,0.00,0.00,VWS V14.01,2013-08-30 04:41:00,
2013-08-29 23:45:00,83.2,76.0,29.92,SSE,148,6.0,9.2,79,0.00,,---,0.00,0.00,VWS V14.01,2013-08-30 04:45:00,
2013-08-29 23:46:00,83.2,76.0,29.92,SSE,148,6.0,9.2,79,0.00,,---,0.00,0.00,VWS V14.01,2013-08-30 04:46:00,
2013-08-29 23:50:00,83.2,76.0,29.92,SSE,148,1.0,8.2,79,0.00,,---,0.00,0.00,VWS V14.01,2013-08-30 04:50:00,
2013-08-29 23:51:00,83.2,76.0,29.92,SSE,148,1.0,8.2,79,0.00,,---,0.00,0.00,VWS V14.01,2013-08-30 04:51:00,
2013-08-29 23:55:00,83.0,76.2,29.92,SSE,155,0.0,6.2,80,0.00,,---,0.00,0.00,VWS V14.01,2013-08-30 04:55:00,
2013-08-29 23:56:00,83.0,76.2,29.92,SSE,155,0.0,6.2,80,0.00,,---,0.00,0.00,VWS V14.01,2013-08-30 04:56:00,